This is the latest recevied weather packets stored in our database for station/object N5LSN. If no packets are shown the sender has not sent any weather packets the latest 10 day(s).
| Time | Temp. | Humidity | Pressure | Rain* | Wind** | Luminosity | Snow |
|---|---|---|---|---|---|---|---|
| 1777610778 | 12.78° C | 88% | 1017.5 hPa | 0 mm | - | 0 W/m² | - |
| 1777610478 | 12.78° C | 89% | 1017.3 hPa | 0 mm | - | 0 W/m² | - |
| 1777610173 | 12.78° C | 90% | 1017.5 hPa | 0 mm | - | 0 W/m² | - |
| 1777609870 | 12.78° C | 89% | 1017.5 hPa | 0 mm | - | 0 W/m² | - |
| 1777609566 | 12.78° C | 89% | 1017.7 hPa | 0 mm | - | 0 W/m² | - |
| 1777609264 | 12.78° C | 89% | 1017.6 hPa | 0 mm | - | 0 W/m² | - |
| 1777608961 | 12.78° C | 85% | 1017.5 hPa | 0 mm | - | 0 W/m² | - |
| 1777608658 | 13.33° C | 84% | 1017.5 hPa | 0 mm | - | 0 W/m² | - |
| 1777608355 | 13.33° C | 83% | 1017.2 hPa | 0 mm | - | 0 W/m² | - |
| 1777608054 | 13.33° C | 82% | 1017.2 hPa | 0 mm | - | 0 W/m² | - |
| 1777607754 | 13.33° C | 81% | 1017.5 hPa | 0 mm | - | 0 W/m² | - |
| 1777607451 | 12.78° C | 82% | 1017.4 hPa | 0 mm | - | 0 W/m² | - |
| 1777607147 | 12.78° C | 82% | 1017.4 hPa | 0 mm | - | 0 W/m² | - |
| 1777606843 | 12.78° C | 81% | 1017.4 hPa | 0 mm | - | 0 W/m² | - |
| 1777606538 | 12.78° C | 84% | 1017.6 hPa | 0 mm | - | 0 W/m² | - |
| 1777606234 | 12.78° C | 82% | 1017.7 hPa | 0 mm | - | 0 W/m² | - |
| 1777605930 | 13.33° C | 80% | 1017.4 hPa | 0 mm | - | 0 W/m² | - |
| 1777605626 | 13.33° C | 80% | 1017.5 hPa | 0 mm | - | 0 W/m² | - |
| 1777605325 | 13.33° C | 80% | 1017.2 hPa | 0 mm | - | 0 W/m² | - |
| 1777605022 | 13.33° C | 80% | 1017.2 hPa | 0 mm | - | 0 W/m² | - |
| 1777604717 | 12.78° C | 81% | 1017.4 hPa | 0 mm | - | 0 W/m² | - |
| 1777604415 | 12.78° C | 84% | 1016.8 hPa | 0 mm | - | 0 W/m² | - |
| 1777604114 | 12.22° C | 85% | 1017.1 hPa | 0 mm | - | 0 W/m² | - |
| 1777603811 | 12.22° C | 86% | 1017.1 hPa | 0 mm | - | 0 W/m² | - |
| 1777603508 | 12.22° C | 84% | 1017.1 hPa | 0 mm | - | 0 W/m² | - |
* Rain latest hour (hover to see other rain measurements)
** Current wind speed in m/s (hover to see current wind gust speed)